Year,Month,Day,Hour,Minute,Value (Times are PST for windspeed in km/hr)
2010,04,01,00,00,0.00
2010,04,01,00,01,0.00
2010,04,01,00,02,0.00
2010,04,01,00,03,0.00
2010,04,01,00,04,0.00
2010,04,01,00,05,0.00
2010,04,01,00,06,0.00
2010,04,01,00,07,0.00
2010,04,01,00,08,0.00
2010,04,01,00,09,0.00
2010,04,01,00,10,0.00
2010,04,01,00,11,0.10
2010,04,01,00,12,0.10
2010,04,01,00,13,0.00
2010,04,01,00,14,0.00
2010,04,01,00,15,0.00
2010,04,01,00,16,0.00
2010,04,01,00,17,0.00
2010,04,01,00,18,0.00
2010,04,01,00,19,0.00
2010,04,01,00,20,0.00
2010,04,01,00,21,0.00
2010,04,01,00,22,0.00
2010,04,01,00,23,0.00
2010,04,01,00,24,0.00
2010,04,01,00,25,0.00
2010,04,01,00,26,0.00
2010,04,01,00,27,0.00
2010,04,01,00,28,0.00
2010,04,01,00,29,0.00
2010,04,01,00,30,0.00
2010,04,01,00,31,0.00
2010,04,01,00,32,0.00
2010,04,01,00,33,0.00
2010,04,01,00,34,0.00
2010,04,01,00,35,0.00
2010,04,01,00,36,0.00
2010,04,01,00,37,0.00
2010,04,01,00,38,0.00
2010,04,01,00,39,0.00
2010,04,01,00,40,0.00
2010,04,01,00,41,0.00
2010,04,01,00,42,0.00
2010,04,01,00,43,0.00
2010,04,01,00,44,0.00
2010,04,01,00,45,0.00
2010,04,01,00,46,0.00
2010,04,01,00,47,0.00
2010,04,01,00,48,0.00
2010,04,01,00,49,0.00
2010,04,01,00,50,0.00
2010,04,01,00,51,0.00
2010,04,01,00,52,0.00
2010,04,01,00,53,0.00
2010,04,01,00,54,0.00
2010,04,01,00,55,0.00
2010,04,01,00,56,0.10
2010,04,01,00,57,0.20
2010,04,01,00,58,0.00
2010,04,01,00,59,0.00
2010,04,01,01,00,0.50
2010,04,01,01,01,0.70
2010,04,01,01,02,0.90
2010,04,01,01,03,0.50
2010,04,01,01,04,0.20
2010,04,01,01,05,0.90
2010,04,01,01,06,1.00
2010,04,01,01,07,2.40
2010,04,01,01,08,2.60
2010,04,01,01,09,1.60
2010,04,01,01,10,2.70
2010,04,01,01,11,0.40
2010,04,01,01,12,1.50
2010,04,01,01,13,1.70
2010,04,01,01,14,0.60
2010,04,01,01,15,1.20
2010,04,01,01,16,1.20
2010,04,01,01,17,1.40
2010,04,01,01,18,2.10
2010,04,01,01,19,1.50
2010,04,01,01,20,0.70
2010,04,01,01,21,1.30
2010,04,01,01,22,0.60
2010,04,01,01,23,0.60
2010,04,01,01,24,1.70
2010,04,01,01,25,0.00
2010,04,01,01,26,0.30
2010,04,01,01,27,0.20
2010,04,01,01,28,0.00
2010,04,01,01,29,0.20
2010,04,01,01,30,0.10
2010,04,01,01,31,0.00
2010,04,01,01,32,0.00
2010,04,01,01,33,0.00
2010,04,01,01,34,0.00
2010,04,01,01,35,0.10
2010,04,01,01,36,0.10
2010,04,01,01,37,0.20
2010,04,01,01,38,0.20
2010,04,01,01,39,0.00
2010,04,01,01,40,0.10
2010,04,01,01,41,0.00
2010,04,01,01,42,0.00
2010,04,01,01,43,0.00
2010,04,01,01,44,0.10
2010,04,01,01,45,0.10
2010,04,01,01,46,0.00
2010,04,01,01,47,0.00
2010,04,01,01,48,0.10
2010,04,01,01,49,0.00
2010,04,01,01,50,0.00
2010,04,01,01,51,0.00
2010,04,01,01,52,0.00
2010,04,01,01,53,0.00
2010,04,01,01,54,0.00
2010,04,01,01,55,0.00
2010,04,01,01,56,0.00
2010,04,01,01,57,0.00
2010,04,01,01,58,0.10
2010,04,01,01,59,0.20
2010,04,01,02,00,0.00
2010,04,01,02,01,0.10
2010,04,01,02,02,0.00
2010,04,01,02,03,0.10
2010,04,01,02,04,0.30
2010,04,01,02,05,0.00
2010,04,01,02,06,0.90
2010,04,01,02,07,1.00
2010,04,01,02,08,0.00
2010,04,01,02,09,0.00
2010,04,01,02,10,0.30
2010,04,01,02,11,0.40
2010,04,01,02,12,0.00
2010,04,01,02,13,0.30
2010,04,01,02,14,0.30
2010,04,01,02,15,0.30
2010,04,01,02,16,1.70
2010,04,01,02,17,1.10
2010,04,01,02,18,1.80
2010,04,01,02,19,1.70
2010,04,01,02,20,0.20
2010,04,01,02,21,0.90
2010,04,01,02,22,0.30
2010,04,01,02,23,0.80
2010,04,01,02,24,1.00
2010,04,01,02,25,0.30
2010,04,01,02,26,1.30
2010,04,01,02,27,0.50
2010,04,01,02,28,0.40
2010,04,01,02,29,0.00
2010,04,01,02,30,0.00
2010,04,01,02,31,0.00
2010,04,01,02,32,0.00
2010,04,01,02,33,0.20
2010,04,01,02,34,0.50
2010,04,01,02,35,0.60
2010,04,01,02,36,0.90
2010,04,01,02,37,0.40
2010,04,01,02,38,0.10
2010,04,01,02,39,0.40
2010,04,01,02,40,0.40
2010,04,01,02,41,0.10
2010,04,01,02,42,0.00
2010,04,01,02,43,0.10
2010,04,01,02,44,0.40
2010,04,01,02,45,0.30
2010,04,01,02,46,0.40
2010,04,01,02,47,0.00
2010,04,01,02,48,0.00
2010,04,01,02,49,0.00
2010,04,01,02,50,0.00
2010,04,01,02,51,0.00
2010,04,01,02,52,0.00
2010,04,01,02,53,0.00
2010,04,01,02,54,0.00
2010,04,01,02,55,0.00
2010,04,01,02,56,0.00
2010,04,01,02,57,0.00
2010,04,01,02,58,0.00
2010,04,01,02,59,0.00
2010,04,01,03,00,0.00
2010,04,01,03,01,0.00
2010,04,01,03,02,0.00
2010,04,01,03,03,0.00
2010,04,01,03,04,0.00
2010,04,01,03,05,0.00
2010,04,01,03,06,0.00
2010,04,01,03,07,0.40
2010,04,01,03,08,1.30
2010,04,01,03,09,1.80
2010,04,01,03,10,0.20
2010,04,01,03,11,1.50
2010,04,01,03,12,1.20
2010,04,01,03,13,0.40
2010,04,01,03,14,0.20
2010,04,01,03,15,1.60
2010,04,01,03,16,1.30
2010,04,01,03,17,2.10
2010,04,01,03,18,1.70
2010,04,01,03,19,0.70
2010,04,01,03,20,0.40
2010,04,01,03,21,1.10
2010,04,01,03,22,0.90
2010,04,01,03,23,1.40
2010,04,01,03,24,1.20
2010,04,01,03,25,0.20
2010,04,01,03,26,0.30
2010,04,01,03,27,0.60
2010,04,01,03,28,1.90
2010,04,01,03,29,2.00
2010,04,01,03,30,6.20
2010,04,01,03,31,2.90
2010,04,01,03,32,1.30
2010,04,01,03,33,3.40
2010,04,01,03,34,1.50
2010,04,01,03,35,1.00
2010,04,01,03,36,1.80
2010,04,01,03,37,0.70
2010,04,01,03,38,1.20
2010,04,01,03,39,0.20
2010,04,01,03,40,0.30
2010,04,01,03,41,1.00
2010,04,01,03,42,0.10
2010,04,01,03,43,0.90
2010,04,01,03,44,0.90
2010,04,01,03,45,0.20
2010,04,01,03,46,3.20
2010,04,01,03,47,0.90
2010,04,01,03,48,0.30
2010,04,01,03,49,0.20
2010,04,01,03,50,1.10
2010,04,01,03,51,0.40
2010,04,01,03,52,1.40
2010,04,01,03,53,3.10
2010,04,01,03,54,2.00
2010,04,01,03,55,2.90
2010,04,01,03,56,2.10
2010,04,01,03,57,0.40
2010,04,01,03,58,0.80
2010,04,01,03,59,1.10
2010,04,01,04,00,2.30
2010,04,01,04,01,0.10
2010,04,01,04,02,0.60
2010,04,01,04,03,1.00
2010,04,01,04,04,1.10
2010,04,01,04,05,0.10
2010,04,01,04,06,0.20
2010,04,01,04,07,0.80
2010,04,01,04,08,0.40
2010,04,01,04,09,0.70
2010,04,01,04,10,1.30
2010,04,01,04,11,0.60
2010,04,01,04,12,0.60
2010,04,01,04,13,1.40
2010,04,01,04,14,0.80
2010,04,01,04,15,0.00
2010,04,01,04,16,0.10
2010,04,01,04,17,0.70
2010,04,01,04,18,1.60
2010,04,01,04,19,0.50
2010,04,01,04,20,0.40
2010,04,01,04,21,0.20
2010,04,01,04,22,0.60
2010,04,01,04,23,0.30
2010,04,01,04,24,0.80
2010,04,01,04,25,0.30
2010,04,01,04,26,0.80
2010,04,01,04,27,0.60
2010,04,01,04,28,0.40
2010,04,01,04,29,1.50
2010,04,01,04,30,1.60
2010,04,01,04,31,2.60
2010,04,01,04,32,0.90
2010,04,01,04,33,1.20
2010,04,01,04,34,0.70
2010,04,01,04,35,0.80
2010,04,01,04,36,1.90
2010,04,01,04,37,3.10
2010,04,01,04,38,0.40
2010,04,01,04,39,2.50
2010,04,01,04,40,3.60
2010,04,01,04,41,0.10
2010,04,01,04,42,2.10
2010,04,01,04,43,2.90
2010,04,01,04,44,0.60
2010,04,01,04,45,1.60
2010,04,01,04,46,0.40
2010,04,01,04,47,1.10
2010,04,01,04,48,0.20
2010,04,01,04,49,0.70
2010,04,01,04,50,0.00
2010,04,01,04,51,1.00
2010,04,01,04,52,1.40
2010,04,01,04,53,0.70
2010,04,01,04,54,0.40
2010,04,01,04,55,0.50
2010,04,01,04,56,1.10
2010,04,01,04,57,0.60
2010,04,01,04,58,0.70
2010,04,01,04,59,0.40
2010,04,01,05,00,0.50
2010,04,01,05,01,0.50
2010,04,01,05,02,0.00
2010,04,01,05,03,0.00
2010,04,01,05,04,1.60
2010,04,01,05,05,0.20
2010,04,01,05,15,0.80
2010,04,01,05,24,2.70
2010,04,01,05,25,3.90
2010,04,01,05,26,1.40
2010,04,01,05,27,1.70
2010,04,01,05,28,2.40
2010,04,01,05,29,0.20
2010,04,01,05,30,2.00
2010,04,01,05,31,2.70
2010,04,01,05,32,3.10
2010,04,01,05,33,1.10
2010,04,01,05,34,1.10
2010,04,01,05,35,1.20
2010,04,01,05,36,2.20
2010,04,01,05,37,3.40
2010,04,01,05,38,3.70
2010,04,01,05,39,3.80
2010,04,01,05,40,3.80
2010,04,01,05,41,6.00
2010,04,01,05,42,3.90
2010,04,01,05,43,5.50
2010,04,01,05,44,3.80
2010,04,01,05,45,2.60
2010,04,01,05,46,1.60
2010,04,01,05,47,2.60
2010,04,01,05,48,4.40
2010,04,01,05,49,4.70
2010,04,01,05,50,2.00
2010,04,01,05,51,0.60
2010,04,01,05,52,0.90
2010,04,01,05,53,0.80
2010,04,01,05,54,3.20
2010,04,01,05,55,7.50
2010,04,01,05,56,4.00
2010,04,01,05,57,3.00
2010,04,01,05,58,1.00
2010,04,01,05,59,0.10
2010,04,01,06,00,2.60
2010,04,01,06,01,3.00
2010,04,01,06,02,0.00
2010,04,01,06,03,0.00
2010,04,01,06,04,0.00
2010,04,01,06,05,0.00
2010,04,01,06,06,0.00
2010,04,01,06,07,0.00
2010,04,01,06,08,0.00
2010,04,01,06,09,0.70
2010,04,01,06,10,2.10
2010,04,01,06,11,1.30
2010,04,01,06,12,0.40
2010,04,01,06,13,0.40
2010,04,01,06,14,0.40
2010,04,01,06,15,2.00
2010,04,01,06,16,0.80
2010,04,01,06,17,0.60
2010,04,01,06,18,0.70
2010,04,01,06,19,0.10
2010,04,01,06,20,0.30
2010,04,01,06,21,0.00
2010,04,01,06,22,0.20
2010,04,01,06,23,1.70
2010,04,01,06,24,0.20
2010,04,01,06,25,0.10
2010,04,01,06,26,0.60
2010,04,01,06,27,0.30
2010,04,01,06,28,0.00
2010,04,01,06,29,0.10
2010,04,01,06,30,0.50
2010,04,01,06,31,0.00
2010,04,01,06,32,0.00
2010,04,01,06,33,0.10
2010,04,01,06,34,0.10
2010,04,01,06,35,0.00
2010,04,01,06,36,0.00
2010,04,01,06,37,0.10
2010,04,01,06,38,0.10
2010,04,01,06,39,0.00
2010,04,01,06,40,0.10
2010,04,01,06,41,0.00
2010,04,01,06,42,0.00
2010,04,01,06,43,0.00
2010,04,01,06,44,0.30
2010,04,01,06,45,0.60
2010,04,01,06,46,0.20
2010,04,01,06,47,0.50
2010,04,01,06,48,0.70
2010,04,01,06,49,0.20
2010,04,01,06,50,0.30
2010,04,01,06,51,0.00
2010,04,01,06,52,0.10
2010,04,01,06,53,0.00
2010,04,01,06,54,0.00
2010,04,01,06,55,0.00
2010,04,01,06,56,0.10
2010,04,01,06,57,0.10
2010,04,01,06,58,0.00
2010,04,01,06,59,0.10
2010,04,01,07,00,0.00
2010,04,01,07,01,0.00
2010,04,01,07,02,0.00
2010,04,01,07,03,0.00
2010,04,01,07,04,0.00
2010,04,01,07,05,0.00
2010,04,01,07,06,0.00
2010,04,01,07,07,0.00
2010,04,01,07,08,0.00
2010,04,01,07,09,0.00
2010,04,01,07,10,0.00
2010,04,01,07,11,0.00
2010,04,01,07,12,0.00
2010,04,01,07,13,0.00
2010,04,01,07,14,0.00
2010,04,01,07,15,0.30
2010,04,01,07,16,1.20
2010,04,01,07,17,0.10
2010,04,01,07,18,0.10
2010,04,01,07,19,0.20
2010,04,01,07,20,0.00
2010,04,01,07,21,0.30
2010,04,01,07,22,0.10
2010,04,01,07,23,0.80
2010,04,01,07,24,0.70
2010,04,01,07,25,1.30
2010,04,01,07,26,1.80
2010,04,01,07,27,2.10
2010,04,01,07,28,2.40
2010,04,01,07,29,1.30
2010,04,01,07,30,3.90
2010,04,01,07,31,1.90
2010,04,01,07,32,2.30
2010,04,01,07,33,3.10
2010,04,01,07,34,3.00
2010,04,01,07,35,2.70
2010,04,01,07,36,2.90
2010,04,01,07,37,3.10
2010,04,01,07,38,3.10
2010,04,01,07,39,3.80
2010,04,01,07,40,1.60
2010,04,01,07,41,3.80
2010,04,01,07,42,2.10
2010,04,01,07,43,1.30
2010,04,01,07,44,3.90
2010,04,01,07,45,1.40
2010,04,01,07,46,1.90
2010,04,01,07,47,2.90
2010,04,01,07,48,4.30
2010,04,01,07,49,1.30
2010,04,01,07,50,0.40
2010,04,01,07,51,1.00
2010,04,01,07,52,2.70
2010,04,01,07,53,1.30
2010,04,01,07,54,2.30
2010,04,01,07,55,0.60
2010,04,01,07,56,2.70
2010,04,01,07,57,1.50
2010,04,01,07,58,2.50
2010,04,01,07,59,0.10
2010,04,01,08,00,0.60
2010,04,01,08,01,1.40
2010,04,01,08,02,1.00
2010,04,01,08,03,0.00
2010,04,01,08,04,0.10
2010,04,01,08,05,1.00
2010,04,01,08,06,2.10
2010,04,01,08,07,0.60
2010,04,01,08,08,2.30
2010,04,01,08,09,3.80
2010,04,01,08,10,1.80
2010,04,01,08,11,1.10
2010,04,01,08,12,3.50
2010,04,01,08,13,3.60
2010,04,01,08,14,1.90
2010,04,01,08,15,2.80
2010,04,01,08,16,1.50
2010,04,01,08,17,1.60
2010,04,01,08,18,2.90
2010,04,01,08,19,5.20
2010,04,01,08,20,5.00
2010,04,01,08,21,4.10
2010,04,01,08,22,0.60
2010,04,01,08,23,1.60
2010,04,01,08,24,2.20
2010,04,01,08,25,3.00
2010,04,01,08,26,1.10
2010,04,01,08,27,0.10
2010,04,01,08,28,1.20
2010,04,01,08,29,3.40
2010,04,01,08,30,4.60
2010,04,01,08,31,3.20
2010,04,01,08,32,2.50
2010,04,01,08,33,5.20
2010,04,01,08,34,2.10
2010,04,01,08,35,2.60
2010,04,01,08,36,1.80
2010,04,01,08,37,0.20
2010,04,01,08,38,0.90
2010,04,01,08,39,1.00
2010,04,01,08,40,0.20
2010,04,01,08,41,0.40
2010,04,01,08,42,1.20
2010,04,01,08,43,0.70
2010,04,01,08,44,0.20
2010,04,01,08,45,1.60
2010,04,01,08,46,2.00
2010,04,01,08,47,1.10
2010,04,01,08,48,0.30
2010,04,01,08,49,0.80
2010,04,01,08,50,1.50
2010,04,01,08,51,0.70
2010,04,01,08,52,0.20
2010,04,01,08,53,3.00
2010,04,01,08,54,0.40
2010,04,01,08,55,1.30
2010,04,01,08,56,0.80
2010,04,01,08,57,0.00
2010,04,01,08,58,1.00
2010,04,01,08,59,1.00
2010,04,01,09,00,2.40
2010,04,01,09,01,0.60
2010,04,01,09,02,0.50
2010,04,01,09,03,3.00
2010,04,01,09,04,4.40
2010,04,01,09,05,4.30
2010,04,01,09,06,4.80
2010,04,01,09,07,2.20
2010,04,01,09,08,4.40
2010,04,01,09,09,5.80
2010,04,01,09,10,5.30
2010,04,01,09,11,2.40
2010,04,01,09,12,3.30
2010,04,01,09,13,2.30
2010,04,01,09,14,5.50
2010,04,01,09,15,5.00
2010,04,01,09,16,6.40
2010,04,01,09,17,5.30
2010,04,01,09,18,5.40
2010,04,01,09,19,3.60
2010,04,01,09,20,1.30
2010,04,01,09,21,0.40
2010,04,01,09,22,0.00
2010,04,01,09,23,0.00
2010,04,01,09,24,4.20
2010,04,01,09,25,5.90
2010,04,01,09,26,4.70
2010,04,01,09,27,4.40
2010,04,01,09,28,3.80
2010,04,01,09,29,3.40
2010,04,01,09,30,1.90
2010,04,01,09,31,3.50
2010,04,01,09,32,1.50
2010,04,01,09,33,0.20
2010,04,01,09,34,0.20
2010,04,01,09,35,0.30
2010,04,01,09,36,1.50
2010,04,01,09,37,0.90
2010,04,01,09,38,2.50
2010,04,01,09,39,3.90
2010,04,01,09,40,0.90
2010,04,01,09,41,0.80
2010,04,01,09,42,1.50
2010,04,01,09,43,1.00
2010,04,01,09,44,3.50
2010,04,01,09,45,4.80
2010,04,01,09,46,4.60
2010,04,01,09,47,2.70
2010,04,01,09,48,3.70
2010,04,01,09,49,2.20
2010,04,01,09,50,4.80
2010,04,01,09,51,1.00
2010,04,01,09,52,5.20
2010,04,01,09,53,7.20
2010,04,01,09,54,4.10
2010,04,01,09,55,1.30
2010,04,01,09,56,1.40
2010,04,01,09,57,0.30
2010,04,01,09,58,1.10
2010,04,01,09,59,2.70
2010,04,01,10,00,2.20
2010,04,01,10,01,3.10
2010,04,01,10,02,6.10
2010,04,01,10,03,1.30
2010,04,01,10,04,2.30
2010,04,01,10,05,6.10
2010,04,01,10,06,5.20
2010,04,01,10,07,3.30
2010,04,01,10,08,2.20
2010,04,01,10,09,8.00
2010,04,01,10,10,5.90
2010,04,01,10,11,2.90
2010,04,01,10,12,5.80
2010,04,01,10,13,4.30
2010,04,01,10,14,1.60
2010,04,01,10,15,0.60
2010,04,01,10,16,0.80
2010,04,01,10,17,1.10
2010,04,01,10,18,0.60
2010,04,01,10,19,2.40
2010,04,01,10,20,2.00
2010,04,01,10,21,1.10
2010,04,01,10,22,3.70
2010,04,01,10,23,3.30
2010,04,01,10,24,6.10
2010,04,01,10,25,4.30
2010,04,01,10,26,8.20
2010,04,01,10,27,5.60
2010,04,01,10,28,1.00
2010,04,01,10,29,2.00
2010,04,01,10,30,1.90
2010,04,01,10,31,4.90
2010,04,01,10,32,1.50
2010,04,01,10,33,10.30
2010,04,01,10,34,4.90
2010,04,01,10,35,4.50
2010,04,01,10,36,5.20
2010,04,01,10,37,1.70
2010,04,01,10,38,4.40
2010,04,01,10,39,6.90
2010,04,01,10,40,5.20
2010,04,01,10,41,6.40
2010,04,01,10,42,5.50
2010,04,01,10,43,7.30
2010,04,01,10,44,2.20
2010,04,01,10,45,3.40
2010,04,01,10,46,1.40
2010,04,01,10,47,3.90
2010,04,01,10,48,8.80
2010,04,01,10,49,11.70
2010,04,01,10,50,12.90
2010,04,01,10,51,7.70
2010,04,01,10,52,2.40
2010,04,01,10,53,3.40
2010,04,01,10,54,5.00
2010,04,01,10,55,7.20
2010,04,01,10,56,5.70
2010,04,01,10,57,8.40
2010,04,01,10,58,3.50
2010,04,01,10,59,4.30
2010,04,01,11,00,4.80
2010,04,01,11,01,7.60
2010,04,01,11,02,2.90
2010,04,01,11,03,2.10
2010,04,01,11,04,5.50
2010,04,01,11,05,5.80
2010,04,01,11,06,8.30
2010,04,01,11,07,9.90
2010,04,01,11,08,3.80
2010,04,01,11,09,3.90
2010,04,01,11,10,2.60
2010,04,01,11,11,3.40
2010,04,01,11,12,3.80
2010,04,01,11,13,3.60
2010,04,01,11,14,5.80
2010,04,01,11,15,6.60
2010,04,01,11,16,8.00
2010,04,01,11,17,7.00
2010,04,01,11,18,7.70
2010,04,01,11,19,7.40
2010,04,01,11,20,7.20
2010,04,01,11,21,12.30
2010,04,01,11,22,9.90
2010,04,01,11,23,10.60
2010,04,01,11,24,7.30
2010,04,01,11,25,5.20
2010,04,01,11,26,4.60
2010,04,01,11,27,2.80
2010,04,01,11,28,2.80
2010,04,01,11,29,8.10
2010,04,01,11,30,4.10
2010,04,01,11,31,4.20
2010,04,01,11,32,3.60
2010,04,01,11,33,8.10
2010,04,01,11,34,12.50
2010,04,01,11,35,11.40
2010,04,01,11,36,7.10
2010,04,01,11,37,8.60
2010,04,01,11,38,6.90
2010,04,01,11,39,7.70
2010,04,01,11,40,7.60
2010,04,01,11,41,7.40
2010,04,01,11,42,7.80
2010,04,01,11,43,9.40
2010,04,01,11,44,8.40
2010,04,01,11,45,2.50
2010,04,01,11,46,3.20
2010,04,01,11,47,6.90
2010,04,01,11,48,5.20
2010,04,01,11,49,2.60
2010,04,01,11,50,1.10
2010,04,01,11,51,6.40
2010,04,01,11,52,6.70
2010,04,01,11,53,7.50
2010,04,01,11,54,15.30
2010,04,01,11,55,13.90
2010,04,01,11,56,13.10
2010,04,01,11,57,4.90
2010,04,01,11,58,2.90
2010,04,01,11,59,3.80
2010,04,01,12,00,11.00
2010,04,01,12,01,11.90
2010,04,01,12,02,7.40
2010,04,01,12,03,1.80
2010,04,01,12,04,1.70
2010,04,01,12,05,5.20
2010,04,01,12,06,6.10
2010,04,01,12,07,8.30
2010,04,01,12,08,4.30
2010,04,01,12,09,6.40
2010,04,01,12,10,5.40
2010,04,01,12,11,9.90
2010,04,01,12,12,9.50
2010,04,01,12,13,8.10
2010,04,01,12,14,8.10
2010,04,01,12,15,6.00
2010,04,01,12,16,6.60
2010,04,01,12,17,8.40
2010,04,01,12,18,10.00
2010,04,01,12,19,9.90
2010,04,01,12,20,8.00
2010,04,01,12,21,7.90
2010,04,01,12,22,3.90
2010,04,01,12,23,2.30
2010,04,01,12,24,9.20
2010,04,01,12,25,3.00
2010,04,01,12,26,5.60
2010,04,01,12,27,7.80
2010,04,01,12,28,7.90
2010,04,01,12,29,8.30
2010,04,01,12,30,4.90
2010,04,01,12,31,5.10
2010,04,01,12,32,11.50
2010,04,01,12,33,8.90
2010,04,01,12,34,7.90
2010,04,01,12,35,7.20
2010,04,01,12,36,7.80
2010,04,01,12,37,8.30
2010,04,01,12,38,6.60
2010,04,01,12,39,7.20
2010,04,01,12,40,4.90
2010,04,01,12,41,2.70
2010,04,01,12,42,5.20
2010,04,01,12,43,6.40
2010,04,01,12,44,6.10
2010,04,01,12,45,7.70
2010,04,01,12,46,7.60
2010,04,01,12,47,7.90
2010,04,01,12,48,6.20
2010,04,01,12,49,6.10
2010,04,01,12,50,5.80
2010,04,01,12,51,7.80
2010,04,01,12,52,8.70
2010,04,01,12,53,16.00
2010,04,01,12,54,9.80
2010,04,01,12,55,8.00
2010,04,01,12,56,8.10
2010,04,01,12,57,4.60
2010,04,01,12,58,6.20
2010,04,01,12,59,8.20
2010,04,01,13,00,9.40
2010,04,01,13,01,7.20
2010,04,01,13,02,7.80
2010,04,01,13,03,10.70
2010,04,01,13,04,8.80
2010,04,01,13,05,8.00
2010,04,01,13,06,6.00
2010,04,01,13,07,8.80
2010,04,01,13,08,8.10
2010,04,01,13,09,4.30
2010,04,01,13,10,8.70
2010,04,01,13,11,8.80
2010,04,01,13,12,7.60
2010,04,01,13,13,8.00
2010,04,01,13,14,4.60
2010,04,01,13,15,6.20
2010,04,01,13,16,5.70
2010,04,01,13,17,5.50
2010,04,01,13,18,10.90
2010,04,01,13,19,8.40
2010,04,01,13,20,10.10
2010,04,01,13,21,6.60
2010,04,01,13,22,7.30
2010,04,01,13,23,5.20
2010,04,01,13,24,8.50
2010,04,01,13,25,8.10
2010,04,01,13,26,7.90
2010,04,01,13,27,7.10
2010,04,01,13,28,10.70
2010,04,01,13,29,6.70
2010,04,01,13,30,7.70
2010,04,01,13,31,8.00
2010,04,01,13,32,8.00
2010,04,01,13,33,8.80
2010,04,01,13,34,7.20
2010,04,01,13,35,6.90
2010,04,01,13,36,9.60
2010,04,01,13,37,8.70
2010,04,01,13,38,5.90
2010,04,01,13,39,7.90
2010,04,01,13,40,8.30
2010,04,01,13,41,4.80
2010,04,01,13,42,6.30
2010,04,01,13,43,3.30
2010,04,01,13,44,7.50
2010,04,01,13,45,5.70
2010,04,01,13,46,7.70
2010,04,01,13,47,5.30
2010,04,01,13,48,8.00
2010,04,01,13,49,7.10
2010,04,01,13,50,6.80
2010,04,01,13,51,7.80
2010,04,01,13,52,7.70
2010,04,01,13,53,10.90
2010,04,01,13,54,5.20
2010,04,01,13,55,3.60
2010,04,01,13,56,1.60
2010,04,01,13,57,6.90
2010,04,01,13,58,3.70
2010,04,01,13,59,4.60
2010,04,01,14,00,5.80
2010,04,01,14,01,6.20
2010,04,01,14,02,6.60
2010,04,01,14,03,6.00
2010,04,01,14,04,8.00
2010,04,01,14,05,8.80
2010,04,01,14,06,4.50
2010,04,01,14,07,6.90
2010,04,01,14,08,7.20
2010,04,01,14,09,4.90
2010,04,01,14,10,11.40
2010,04,01,14,11,7.30
2010,04,01,14,12,5.70
2010,04,01,14,13,11.40
2010,04,01,14,14,6.00
2010,04,01,14,15,9.80
2010,04,01,14,16,8.10
2010,04,01,14,17,9.70
2010,04,01,14,18,7.80
2010,04,01,14,19,5.50
2010,04,01,14,20,6.30
2010,04,01,14,21,4.10
2010,04,01,14,22,5.10
2010,04,01,14,23,9.90
2010,04,01,14,24,7.90
2010,04,01,14,25,5.10
2010,04,01,14,26,8.20
2010,04,01,14,27,5.70
2010,04,01,14,28,3.30
2010,04,01,14,29,8.50
2010,04,01,14,30,5.60
2010,04,01,14,31,3.80
2010,04,01,14,32,7.00
2010,04,01,14,33,6.30
2010,04,01,14,34,6.50
2010,04,01,14,35,6.60
2010,04,01,14,36,3.60
2010,04,01,14,37,4.20
2010,04,01,14,38,6.90
2010,04,01,14,39,5.20
2010,04,01,14,40,8.90
2010,04,01,14,41,4.30
2010,04,01,14,42,6.60
2010,04,01,14,43,6.50
2010,04,01,14,44,7.10
2010,04,01,14,45,2.40
2010,04,01,14,46,7.20
2010,04,01,14,47,7.60
2010,04,01,14,48,3.60
2010,04,01,14,49,3.10
2010,04,01,14,50,2.60
2010,04,01,14,51,2.70
2010,04,01,14,52,4.70
2010,04,01,14,53,1.40
2010,04,01,14,54,3.10
2010,04,01,14,55,3.30
2010,04,01,14,56,4.10
2010,04,01,14,57,4.60
2010,04,01,14,58,4.70
2010,04,01,14,59,3.80
2010,04,01,15,00,3.40
2010,04,01,15,01,7.30
2010,04,01,15,02,5.20
2010,04,01,15,03,2.40
2010,04,01,15,04,2.90
2010,04,01,15,05,8.40
2010,04,01,15,06,6.70
2010,04,01,15,07,6.80
2010,04,01,15,08,3.60
2010,04,01,15,09,0.40
2010,04,01,15,10,3.40
2010,04,01,15,11,1.40
2010,04,01,15,12,3.60
2010,04,01,15,13,6.00
2010,04,01,15,14,4.30
2010,04,01,15,15,2.00
2010,04,01,15,16,3.00
2010,04,01,15,17,4.40
2010,04,01,15,18,3.70
2010,04,01,15,19,3.90
2010,04,01,15,20,5.40
2010,04,01,15,21,6.10
2010,04,01,15,22,4.70
2010,04,01,15,23,4.60
2010,04,01,15,24,4.00
2010,04,01,15,25,3.80
2010,04,01,15,26,5.60
2010,04,01,15,27,4.40
2010,04,01,15,28,6.70
2010,04,01,15,29,2.20
2010,04,01,15,30,2.30
2010,04,01,15,31,2.00
2010,04,01,15,32,6.80
2010,04,01,15,33,8.10
2010,04,01,15,34,4.90
2010,04,01,15,35,4.70
2010,04,01,15,36,4.80
2010,04,01,15,37,8.10
2010,04,01,15,38,7.90
2010,04,01,15,39,9.60
2010,04,01,15,40,7.50
2010,04,01,15,41,11.20
2010,04,01,15,42,9.80
2010,04,01,15,43,10.30
2010,04,01,15,44,8.20
2010,04,01,15,45,8.30
2010,04,01,15,46,5.90
2010,04,01,15,47,9.30
2010,04,01,15,48,8.10
2010,04,01,15,49,7.40
2010,04,01,15,50,5.70
2010,04,01,15,51,6.70
2010,04,01,15,52,8.70
2010,04,01,15,53,6.10
2010,04,01,15,54,5.40
2010,04,01,15,55,4.00
2010,04,01,15,56,5.20
2010,04,01,15,57,2.10
2010,04,01,15,58,5.30
2010,04,01,15,59,4.40
2010,04,01,16,00,6.60
2010,04,01,16,01,6.60
2010,04,01,16,02,4.60
2010,04,01,16,03,0.50
2010,04,01,16,04,4.40
2010,04,01,16,05,3.00
2010,04,01,16,06,6.50
2010,04,01,16,07,7.20
2010,04,01,16,08,7.30
2010,04,01,16,09,4.20
2010,04,01,16,10,5.30
2010,04,01,16,11,5.50
2010,04,01,16,12,8.10
2010,04,01,16,13,5.20
2010,04,01,16,14,4.80
2010,04,01,16,15,5.10
2010,04,01,16,16,4.40
2010,04,01,16,17,3.90
2010,04,01,16,18,3.60
2010,04,01,16,19,3.40
2010,04,01,16,20,5.10
2010,04,01,16,21,1.10
2010,04,01,16,22,1.00
2010,04,01,16,23,4.40
2010,04,01,16,24,4.10
2010,04,01,16,25,4.70
2010,04,01,16,26,2.40
2010,04,01,16,27,4.30
2010,04,01,16,28,4.00
2010,04,01,16,29,3.30
2010,04,01,16,30,6.20
2010,04,01,16,31,3.90
2010,04,01,16,32,3.10
2010,04,01,16,33,6.20
2010,04,01,16,34,3.70
2010,04,01,16,35,1.30
2010,04,01,16,36,2.10
2010,04,01,16,37,1.00
2010,04,01,16,38,5.90
2010,04,01,16,39,3.30
2010,04,01,16,40,3.00
2010,04,01,16,41,3.00
2010,04,01,16,42,2.60
2010,04,01,16,43,2.80
2010,04,01,16,44,2.90
2010,04,01,16,45,3.20
2010,04,01,16,46,1.70
2010,04,01,16,47,0.00
2010,04,01,16,48,2.30
2010,04,01,16,49,2.60
2010,04,01,16,50,0.10
2010,04,01,16,51,0.00
2010,04,01,16,52,1.60
2010,04,01,16,53,4.70
2010,04,01,16,54,1.00
2010,04,01,16,55,0.40
2010,04,01,16,56,0.10
2010,04,01,16,57,0.00
2010,04,01,16,58,1.30
2010,04,01,16,59,0.80
2010,04,01,17,00,0.10
2010,04,01,17,01,1.40
2010,04,01,17,02,0.20
2010,04,01,17,03,0.10
2010,04,01,17,04,0.50
2010,04,01,17,05,0.80
2010,04,01,17,06,0.40
2010,04,01,17,07,0.40
2010,04,01,17,08,0.20
2010,04,01,17,09,0.00
2010,04,01,17,10,0.40
2010,04,01,17,11,0.20
2010,04,01,17,12,0.00
2010,04,01,17,13,0.10
2010,04,01,17,14,0.30
2010,04,01,17,15,0.00
2010,04,01,17,16,3.30
2010,04,01,17,17,2.50
2010,04,01,17,18,0.10
2010,04,01,17,19,2.10
2010,04,01,17,20,2.30
2010,04,01,17,21,0.90
2010,04,01,17,22,0.20
2010,04,01,17,23,3.60
2010,04,01,17,24,1.50
2010,04,01,17,25,1.20
2010,04,01,17,26,2.40
2010,04,01,17,27,2.10
2010,04,01,17,28,2.80
2010,04,01,17,29,0.00
2010,04,01,17,30,1.40
2010,04,01,17,31,0.60
2010,04,01,17,32,1.80
2010,04,01,17,33,0.10
2010,04,01,17,34,0.90
2010,04,01,17,35,0.00
2010,04,01,17,36,0.30
2010,04,01,17,37,0.10
2010,04,01,17,38,0.00
2010,04,01,17,39,0.60
2010,04,01,17,40,0.70
2010,04,01,17,41,0.70
2010,04,01,17,42,0.30
2010,04,01,17,43,0.00
2010,04,01,17,44,0.00
2010,04,01,17,45,0.60
2010,04,01,17,46,0.30
2010,04,01,17,47,0.80
2010,04,01,17,48,1.80
2010,04,01,17,49,0.50
2010,04,01,17,50,0.30
2010,04,01,17,51,0.40
2010,04,01,17,52,0.10
2010,04,01,17,53,0.00
2010,04,01,17,54,0.00
2010,04,01,17,55,0.00
2010,04,01,17,56,0.00
2010,04,01,17,57,0.00
2010,04,01,17,58,0.00
2010,04,01,17,59,0.60
2010,04,01,18,00,0.60
2010,04,01,18,01,0.40
2010,04,01,18,02,1.30
2010,04,01,18,03,1.50
2010,04,01,18,04,1.00
2010,04,01,18,05,0.80
2010,04,01,18,06,0.20
2010,04,01,18,07,0.40
2010,04,01,18,08,0.80
2010,04,01,18,09,0.10
2010,04,01,18,10,0.20
2010,04,01,18,11,0.60
2010,04,01,18,12,0.10
2010,04,01,18,13,0.10
2010,04,01,18,14,0.00
2010,04,01,18,15,0.50
2010,04,01,18,16,0.30
2010,04,01,18,17,0.50
2010,04,01,18,18,0.30
2010,04,01,18,19,0.60
2010,04,01,18,20,1.00
2010,04,01,18,21,0.40
2010,04,01,18,22,0.40